Time,TemperatureF,DewpointF,PressureIn,WindDirection,WindDirectionDegrees,WindSpeedMPH,WindSpeedGustMPH,Humidity,HourlyPrecipIn,Conditions,Clouds,dailyrainin,SolarRadiationWatts/m^2,SoftwareType,DateUTC
2013-01-20 00:22:00,42.0,10.0,-100.00,SE,126,3.0,7.0,27,0.00,,,0.00,0.000000,,2013-01-20 08:22:00,
2013-01-20 00:32:00,42.0,10.0,-100.00,SE,126,3.0,7.0,27,0.00,,,0.00,0.000000,,2013-01-20 08:32:00,
2013-01-20 00:42:00,42.0,10.0,-100.00,SE,126,3.0,7.0,27,0.00,,,0.00,0.000000,,2013-01-20 08:42:00,
2013-01-20 00:52:00,42.0,10.0,-100.00,SE,126,3.0,7.0,27,0.00,,,0.00,0.000000,,2013-01-20 08:52:00,
2013-01-20 01:22:00,41.0,10.0,-100.00,ESE,111,0.0,8.0,28,0.00,,,0.00,0.000000,,2013-01-20 09:22:00,
2013-01-20 01:33:00,41.0,10.0,-100.00,ESE,111,0.0,8.0,28,0.00,,,0.00,0.000000,,2013-01-20 09:33:00,
2013-01-20 01:42:00,41.0,10.0,-100.00,ESE,111,0.0,8.0,28,0.00,,,0.00,0.000000,,2013-01-20 09:42:00,
2013-01-20 01:52:00,41.0,10.0,-100.00,ESE,111,0.0,8.0,28,0.00,,,0.00,0.000000,,2013-01-20 09:52:00,
2013-01-20 02:22:00,42.0,8.0,-100.00,ESE,106,1.0,8.0,24,0.00,,,0.00,0.000000,,2013-01-20 10:22:00,
2013-01-20 02:32:00,42.0,8.0,-100.00,ESE,106,1.0,8.0,24,0.00,,,0.00,0.000000,,2013-01-20 10:32:00,
2013-01-20 02:42:00,42.0,8.0,-100.00,ESE,106,1.0,8.0,24,0.00,,,0.00,0.000000,,2013-01-20 10:42:00,
2013-01-20 02:52:00,42.0,8.0,-100.00,ESE,106,1.0,8.0,24,0.00,,,0.00,0.000000,,2013-01-20 10:52:00,
2013-01-20 03:22:00,42.0,10.0,-100.00,SE,136,4.0,8.0,26,0.00,,,0.00,0.000000,,2013-01-20 11:22:00,
2013-01-20 03:32:00,42.0,10.0,-100.00,SE,136,4.0,8.0,26,0.00,,,0.00,0.000000,,2013-01-20 11:32:00,
2013-01-20 04:22:00,38.0,11.0,-100.00,SE,135,3.0,7.0,32,-99.99,,,0.00,0.000000,,2013-01-20 12:22:00,
2013-01-20 04:33:00,38.0,11.0,-100.00,SE,135,3.0,7.0,32,-99.99,,,0.00,0.000000,,2013-01-20 12:33:00,
2013-01-20 04:43:00,38.0,11.0,-100.00,SE,135,3.0,7.0,32,-99.99,,,0.00,0.000000,,2013-01-20 12:43:00,
2013-01-20 04:52:00,38.0,11.0,-100.00,SE,135,3.0,7.0,32,-99.99,,,0.00,0.000000,,2013-01-20 12:52:00,
2013-01-20 05:23:00,40.0,13.0,-100.00,ESE,123,1.0,6.0,32,0.00,,,0.00,0.000000,,2013-01-20 13:23:00,
2013-01-20 05:33:00,40.0,13.0,-100.00,ESE,123,1.0,6.0,32,0.00,,,0.00,0.000000,,2013-01-20 13:33:00,
2013-01-20 05:42:00,40.0,13.0,-100.00,ESE,123,1.0,6.0,32,0.00,,,0.00,0.000000,,2013-01-20 13:42:00,
2013-01-20 05:52:00,40.0,13.0,-100.00,ESE,123,1.0,6.0,32,0.00,,,0.00,0.000000,,2013-01-20 13:52:00,
2013-01-20 06:22:00,38.0,11.0,-100.00,ESE,121,1.0,7.0,33,0.00,,,-99.99,0.000000,,2013-01-20 14:22:00,
2013-01-20 06:32:00,38.0,11.0,-100.00,ESE,121,1.0,7.0,33,0.00,,,-99.99,0.000000,,2013-01-20 14:32:00,
2013-01-20 06:42:00,38.0,11.0,-100.00,ESE,121,1.0,7.0,33,0.00,,,-99.99,0.000000,,2013-01-20 14:42:00,
2013-01-20 06:52:00,38.0,11.0,-100.00,ESE,121,1.0,7.0,33,0.00,,,-99.99,0.000000,,2013-01-20 14:52:00,
2013-01-20 07:23:00,38.0,13.0,-100.00,ESE,123,3.0,6.0,36,0.00,,,0.00,0.000000,,2013-01-20 15:23:00,
2013-01-20 07:33:00,38.0,13.0,-100.00,ESE,123,3.0,6.0,36,0.00,,,0.00,0.000000,,2013-01-20 15:33:00,
2013-01-20 07:42:00,38.0,13.0,-100.00,ESE,123,3.0,6.0,36,0.00,,,0.00,0.000000,,2013-01-20 15:42:00,
2013-01-20 07:52:00,38.0,13.0,-100.00,ESE,123,3.0,6.0,36,0.00,,,0.00,0.000000,,2013-01-20 15:52:00,
2013-01-20 08:23:00,41.0,15.0,-100.00,ESE,122,2.0,6.0,34,0.00,,,0.00,11.000000,,2013-01-20 16:23:00,
2013-01-20 09:22:00,52.0,18.0,-100.00,ESE,120,2.0,7.0,26,-99.99,,,-99.99,290.000000,,2013-01-20 17:22:00,
2013-01-20 09:32:00,52.0,18.0,-100.00,ESE,120,2.0,7.0,26,-99.99,,,-99.99,290.000000,,2013-01-20 17:32:00,
2013-01-20 10:23:00,63.0,19.0,-100.00,South,169,0.0,7.0,18,-99.99,,,0.00,492.000000,,2013-01-20 18:23:00,
2013-01-20 11:12:00,67.0,13.0,-100.00,WSW,248,2.0,5.0,12,-99.99,,,0.00,638.000000,,2013-01-20 19:12:00,
2013-01-20 11:22:00,67.0,13.0,-100.00,WSW,248,2.0,5.0,12,-99.99,,,0.00,638.000000,,2013-01-20 19:22:00,
2013-01-20 12:22:00,65.0,18.0,-100.00,West,265,3.0,7.0,16,-99.99,,,0.00,721.000000,,2013-01-20 20:22:00,
2013-01-20 12:33:00,65.0,18.0,-100.00,West,265,3.0,7.0,16,-99.99,,,0.00,721.000000,,2013-01-20 20:33:00,
2013-01-20 13:22:00,66.0,20.0,-100.00,West,270,3.0,7.0,17,-99.99,,,0.00,735.000000,,2013-01-20 21:22:00,
2013-01-20 13:33:00,66.0,20.0,-100.00,West,270,3.0,7.0,17,-99.99,,,0.00,735.000000,,2013-01-20 21:33:00,
2013-01-20 13:43:00,66.0,20.0,-100.00,West,270,3.0,7.0,17,-99.99,,,0.00,735.000000,,2013-01-20 21:43:00,
2013-01-20 13:52:00,66.0,20.0,-100.00,West,270,3.0,7.0,17,-99.99,,,0.00,735.000000,,2013-01-20 21:52:00,
2013-01-20 14:22:00,65.0,22.0,-100.00,WNW,285,3.0,9.0,19,0.00,,,-99.99,672.000000,,2013-01-20 22:22:00,
2013-01-20 14:33:00,65.0,22.0,-100.00,WNW,285,3.0,9.0,19,0.00,,,-99.99,672.000000,,2013-01-20 22:33:00,
2013-01-20 15:23:00,65.0,24.0,-100.00,West,272,3.0,8.0,21,0.00,,,0.00,545.000000,,2013-01-20 23:23:00,
2013-01-20 15:33:00,65.0,24.0,-100.00,West,272,3.0,8.0,21,0.00,,,0.00,545.000000,,2013-01-20 23:33:00,
2013-01-20 15:42:00,65.0,24.0,-100.00,West,272,3.0,8.0,21,0.00,,,0.00,545.000000,,2013-01-20 23:42:00,
2013-01-20 15:52:00,65.0,24.0,-100.00,West,272,3.0,8.0,21,0.00,,,0.00,545.000000,,2013-01-20 23:52:00,
2013-01-20 16:22:00,65.0,30.0,-100.00,West,259,2.0,6.0,27,0.00,,,0.00,359.000000,,2013-01-21 00:22:00,
2013-01-20 16:33:00,65.0,30.0,-100.00,West,259,2.0,6.0,27,0.00,,,0.00,359.000000,,2013-01-21 00:33:00,
2013-01-20 17:22:00,57.0,30.0,-100.00,SE,125,0.0,6.0,36,-99.99,,,0.00,140.000000,,2013-01-21 01:22:00,
2013-01-20 17:32:00,57.0,30.0,-100.00,SE,125,0.0,6.0,36,-99.99,,,0.00,140.000000,,2013-01-21 01:32:00,
2013-01-20 17:43:00,57.0,30.0,-100.00,SE,125,0.0,6.0,36,-99.99,,,0.00,140.000000,,2013-01-21 01:43:00,
2013-01-20 17:52:00,57.0,30.0,-100.00,SE,125,0.0,6.0,36,-99.99,,,0.00,140.000000,,2013-01-21 01:52:00,
2013-01-20 18:23:00,45.0,30.0,-100.00,ESE,119,0.0,4.0,55,-99.99,,,0.00,3.000000,,2013-01-21 02:23:00,
2013-01-20 18:33:00,45.0,30.0,-100.00,ESE,119,0.0,4.0,55,-99.99,,,0.00,3.000000,,2013-01-21 02:33:00,
2013-01-20 18:42:00,45.0,30.0,-100.00,ESE,119,0.0,4.0,55,-99.99,,,0.00,3.000000,,2013-01-21 02:42:00,
2013-01-20 18:52:00,45.0,30.0,-100.00,ESE,119,0.0,4.0,55,-99.99,,,0.00,3.000000,,2013-01-21 02:52:00,
2013-01-20 19:23:00,43.0,20.0,-100.00,ESE,108,1.0,7.0,39,0.00,,,0.00,0.000000,,2013-01-21 03:23:00,
2013-01-20 19:33:00,43.0,20.0,-100.00,ESE,108,1.0,7.0,39,0.00,,,0.00,0.000000,,2013-01-21 03:33:00,
2013-01-20 19:43:00,43.0,20.0,-100.00,ESE,108,1.0,7.0,39,0.00,,,0.00,0.000000,,2013-01-21 03:43:00,
2013-01-20 19:52:00,43.0,20.0,-100.00,ESE,108,1.0,7.0,39,0.00,,,0.00,0.000000,,2013-01-21 03:52:00,
2013-01-20 20:23:00,45.0,19.0,-100.00,SE,127,3.0,6.0,35,0.00,,,0.00,0.000000,,2013-01-21 04:23:00,
2013-01-20 20:32:00,45.0,19.0,-100.00,SE,127,3.0,6.0,35,0.00,,,0.00,0.000000,,2013-01-21 04:32:00,
2013-01-20 20:42:00,45.0,19.0,-100.00,SE,127,3.0,6.0,35,0.00,,,0.00,0.000000,,2013-01-21 04:42:00,
2013-01-20 20:52:00,45.0,19.0,-100.00,SE,127,3.0,6.0,35,0.00,,,0.00,0.000000,,2013-01-21 04:52:00,
2013-01-20 21:22:00,43.0,17.0,-100.00,ESE,118,3.0,7.0,35,0.00,,,-99.99,0.000000,,2013-01-21 05:22:00,
2013-01-20 21:33:00,43.0,17.0,-100.00,ESE,118,3.0,7.0,35,0.00,,,-99.99,0.000000,,2013-01-21 05:33:00,
2013-01-20 21:42:00,43.0,17.0,-100.00,ESE,118,3.0,7.0,35,0.00,,,-99.99,0.000000,,2013-01-21 05:42:00,
2013-01-20 21:52:00,43.0,17.0,-100.00,ESE,118,3.0,7.0,35,0.00,,,-99.99,0.000000,,2013-01-21 05:52:00,
2013-01-20 22:23:00,41.0,15.0,-100.00,ESE,114,1.0,7.0,35,0.00,,,0.00,0.000000,,2013-01-21 06:23:00,
2013-01-20 22:33:00,41.0,15.0,-100.00,ESE,114,1.0,7.0,35,0.00,,,0.00,0.000000,,2013-01-21 06:33:00,
2013-01-20 22:43:00,41.0,15.0,-100.00,ESE,114,1.0,7.0,35,0.00,,,0.00,0.000000,,2013-01-21 06:43:00,
2013-01-20 22:52:00,41.0,15.0,-100.00,ESE,114,1.0,7.0,35,0.00,,,0.00,0.000000,,2013-01-21 06:52:00,
2013-01-20 23:22:00,40.0,15.0,-100.00,ESE,121,1.0,8.0,35,0.00,,,0.00,0.000000,,2013-01-21 07:22:00,
2013-01-20 23:33:00,40.0,15.0,-100.00,ESE,121,1.0,8.0,35,0.00,,,0.00,0.000000,,2013-01-21 07:33:00,
2013-01-20 23:42:00,40.0,15.0,-100.00,ESE,121,1.0,8.0,35,0.00,,,0.00,0.000000,,2013-01-21 07:42:00,
2013-01-20 23:52:00,40.0,15.0,-100.00,ESE,121,1.0,8.0,35,0.00,,,0.00,0.000000,,2013-01-21 07:52:00,